User: anonymous   Login
Location: Kelowna
(49.8880°N, 119.4960°W)
Time: 22:39:01
(UTC-07:00)
Language:

NANOSAT C BR1 - Orbit

View from above orbital plane
View from above orbital plane
View from above satellite
View from above satellite

Ground track
Ground track

The orbit data is extracted from the following two-line orbital elements,

1 40024U 14033Q   24106.47680011  .00014456  00000-0  11188-2 0  9992
2 40024  98.0552  76.0775 0008174  32.6712 327.5015 15.01550835533832
Epoch (UTC): 15 April 2024 11:26:35
Eccentricity: 0.0008174
inclination: 98.0552°
perigee height: 556 km
apogee height: 568 km
right ascension of ascending node: 76.0775°
argument of perigee: 32.6712°
revolutions per day: 15.01550835
mean anomaly at epoch: 327.5015°
orbit number at epoch: 53383

The dashed part of the orbit path shows where the satellite is in the earth's shadow,  

DLR